Starlink 30839

operational
NORAD ID: 58209 Int'l Des: 2023-170 Owner: SPXS Country: US Constellation: starlink
LEOCIRCULAR

Über Starlink 30839

Beschreibung wird geladen...

Live-Position

3D-Globus wird geladen...

Nächste Überflüge

Höhenverlauf

Altitude vs Time

uPlot chart will show altitude changes over time

Zweizeiliger Elementsatz

1 58209U 23170D 25258.15865771 -.00000207 00000-0 -28391-6 0 9999
2 58209 43.0027 69.8263 0001099 264.8106 95.2611 15.02535787103878
Epoch: 15. Sept. 2025 • Age: 10 hours

Aktueller Status

Höhe 559.6 km
Geschwindigkeit 7.58 km/s
Subsatellitenpunkt -5.25°S, 45.13°E
Startdatum 4. Nov. 2023
Alter 1.8 years
Typ internet

Technische Details

Klassifizierung Payload
Masse 730.00 kg
Trockenmasse 700.00 kg
Gesamtmasse 730.00 kg
Länge 0.30 m
Durchmesser 4.10 m
Spannweite 29.00 m
Form Box + pan
Hersteller SPXS
Bus-Typ Starlink V2M
Phasenstatus In Orbit
Besitzer/Staat SPXS/US

Große Konstellationen

Loading constellations...